User: anonymous   Login
Location: Caltech
(34.1382°N, 118.1253°W)
Time: 00:53:30
(UTC-08:00)
Language:

OAO 2 Rocket - Orbit

View from above orbital plane
View from above orbital plane
View from above satellite
View from above satellite

Ground track
Ground track

The orbit data is extracted from the following two-line orbital elements,

1  3598U 68110B   18051.87561471 +.00000082 +00000-0 +23632-4 0  9995
2  3598 034.9947 012.8603 0048828 085.2523 275.3744 14.54356267581793
Epoch (UTC): 20 February 2018 21:00:53
Eccentricity: 0.0048828
inclination: 34.9947°
perigee height: 677 km
apogee height: 746 km
right ascension of ascending node: 12.8603°
argument of perigee: 85.2523°
revolutions per day: 14.54356267
mean anomaly at epoch: 275.3744°
orbit number at epoch: 58179

The dashed part of the orbit path shows where the satellite is in the earth's shadow,  

DLR